RYR90 EGSS-EDDS

Flight info

Callsign RYR90
Flight time 1h 1m
Altitude 23000
Route EGGS/04 DET2D DET L6 DVR L9 KONAN UL607 KOK DCT DEMUL DCT PITES M150 KRH T128 BADSO BADS2A EDDS/25
Aircraft B738/M-ICAO/MODE S

Departure

Time 2026-05-04 10:54
Airport London Stansted Airport (EGSS)

Arrival

Time 2026-05-04 11:55
Airport Stuttgart Airport (EDDS)
Time Latitude Longitude Altitude Speed Heading
2026-05-04 10:08 51.88775 0.25535 357 ft 0 kts 42°
2026-05-04 10:42 51.88755 0.25506 357 ft 3 kts 42°
2026-05-04 10:42 51.88736 0.25477 357 ft 3 kts 42°
2026-05-04 10:42 51.88717 0.25449 357 ft 1 kts 40°
2026-05-04 10:42 51.88709 0.25442 357 ft 0 kts 354°
2026-05-04 10:43 51.88702 0.25449 357 ft 0 kts 321°
2026-05-04 10:45 51.88706 0.25444 357 ft 2 kts 315°
2026-05-04 10:45 51.88723 0.25398 357 ft 6 kts 303°
2026-05-04 10:45 51.88762 0.25318 357 ft 11 kts 309°
2026-05-04 10:45 51.88824 0.25207 357 ft 15 kts 315°
2026-05-04 10:46 51.88907 0.25070 357 ft 18 kts 312°
2026-05-04 10:46 51.88982 0.24918 357 ft 0 kts 304°
2026-05-04 10:47 51.88983 0.24916 357 ft 1 kts 291°
2026-05-04 10:47 51.88937 0.24890 357 ft 13 kts 197°
2026-05-04 10:47 51.88868 0.24809 357 ft 22 kts 223°
2026-05-04 10:47 51.88751 0.24632 357 ft 19 kts 222°
2026-05-04 10:49 51.88008 0.23518 357 ft 18 kts 223°
2026-05-04 10:49 51.87880 0.23325 357 ft 21 kts 222°
2026-05-04 10:50 51.87797 0.23200 357 ft 25 kts 224°
2026-05-04 10:51 51.87613 0.22630 357 ft 15 kts 222°
2026-05-04 10:52 51.87537 0.22509 357 ft 14 kts 237°
2026-05-04 10:52 51.87546 0.22385 357 ft 6 kts 310°
2026-05-04 10:52 51.87550 0.22377 357 ft 0 kts 312°
2026-05-04 10:54 51.90465 0.26502 1498 ft 171 kts 40°
2026-05-04 10:54 51.91317 0.27893 2100 ft 178 kts 58°
2026-05-04 10:56 51.87243 0.46586 3993 ft 269 kts 112°
2026-05-04 10:56 51.86713 0.48400 3992 ft 265 kts 112°
2026-05-04 10:56 51.85921 0.51111 3992 ft 273 kts 113°
2026-05-04 10:57 51.85096 0.53924 3986 ft 274 kts 114°
2026-05-04 10:57 51.84271 0.56725 3985 ft 271 kts 112°
2026-05-04 10:57 51.83474 0.59471 4002 ft 273 kts 109°
2026-05-04 10:57 51.82982 0.63609 4812 ft 282 kts 89°
2026-05-04 10:58 51.82966 0.65673 5510 ft 276 kts 84°
2026-05-04 10:58 51.83108 0.68776 6338 ft 277 kts 82°
2026-05-04 10:58 51.83271 0.71945 7054 ft 284 kts 83°
2026-05-04 10:58 51.83395 0.75196 7753 ft 291 kts 84°
2026-05-04 10:59 51.83515 0.78489 8428 ft 298 kts 84°
2026-05-04 10:59 51.83644 0.81895 9147 ft 304 kts 84°
2026-05-04 10:59 51.83775 0.85371 9824 ft 312 kts 85°
2026-05-04 10:59 51.83908 0.88914 10562 ft 317 kts 86°
2026-05-04 11:00 51.84086 0.93704 11545 ft 323 kts 87°
2026-05-04 11:01 51.83892 1.19144 16383 ft 349 kts 114°
2026-05-04 11:02 51.83058 1.22909 17071 ft 354 kts 115°
2026-05-04 11:02 51.82242 1.26693 17707 ft 360 kts 114°
2026-05-04 11:05 51.69201 1.86249 23020 ft 461 kts 116°
2026-05-04 11:06 51.68112 1.91135 23019 ft 472 kts 116°
2026-05-04 11:06 51.66975 1.96227 23019 ft 481 kts 116°
2026-05-04 11:06 51.65457 2.03029 23019 ft 482 kts 116°
2026-05-04 11:06 51.64306 2.08177 23019 ft 481 kts 116°
2026-05-04 11:08 51.56340 2.43261 23019 ft 512 kts 115°
2026-05-04 11:10 51.47698 2.80774 23020 ft 511 kts 116°
2026-05-04 11:12 51.38877 3.18363 23020 ft 517 kts 115°
2026-05-04 11:12 51.37601 3.23759 23020 ft 517 kts 115°
2026-05-04 11:12 51.36337 3.29093 23020 ft 516 kts 115°
2026-05-04 11:12 51.35044 3.34531 23020 ft 516 kts 115°
2026-05-04 11:13 51.33787 3.39943 23020 ft 517 kts 114°
2026-05-04 11:13 51.32622 3.45323 23020 ft 518 kts 113°
2026-05-04 11:13 51.31468 3.50748 23020 ft 518 kts 113°
2026-05-04 11:13 51.30284 3.56238 23020 ft 518 kts 113°
2026-05-04 11:14 51.29100 3.61667 23020 ft 518 kts 113°
2026-05-04 11:14 51.27904 3.67122 23013 ft 518 kts 114°
2026-05-04 11:14 51.26728 3.72478 23007 ft 517 kts 114°
2026-05-04 11:16 51.18260 4.10430 22990 ft 516 kts 117°
2026-05-04 11:16 51.16678 4.15588 22996 ft 509 kts 126°
2026-05-04 11:16 51.14693 4.20202 22995 ft 499 kts 137°
2026-05-04 11:17 51.12301 4.24050 23007 ft 489 kts 146°
2026-05-04 11:17 51.09687 4.27552 23002 ft 488 kts 148°
2026-05-04 11:19 50.91518 4.52075 23020 ft 489 kts 146°
2026-05-04 11:19 50.88965 4.55564 23019 ft 491 kts 143°
2026-05-04 11:19 50.86486 4.59383 23021 ft 493 kts 140°
2026-05-04 11:19 50.84078 4.63309 23022 ft 499 kts 139°
2026-05-04 11:20 50.80839 4.68495 23019 ft 500 kts 141°
2026-05-04 11:20 50.79211 4.71063 23020 ft 499 kts 141°
2026-05-04 11:20 50.76753 4.74929 23019 ft 498 kts 141°
2026-05-04 11:20 50.73465 4.80087 23020 ft 498 kts 141°
2026-05-04 11:22 50.56993 5.05718 23020 ft 500 kts 140°
2026-05-04 11:22 50.54506 5.09563 23020 ft 500 kts 140°
2026-05-04 11:23 50.51211 5.14649 23020 ft 500 kts 140°
2026-05-04 11:23 50.49530 5.17239 23020 ft 500 kts 140°
2026-05-04 11:24 50.33723 5.41458 23020 ft 500 kts 140°
2026-05-04 11:25 50.32062 5.43989 23020 ft 500 kts 140°
2026-05-04 11:25 50.28730 5.49060 23020 ft 500 kts 140°
2026-05-04 11:25 50.26215 5.52879 23020 ft 500 kts 140°
2026-05-04 11:26 50.22065 5.59169 23020 ft 500 kts 140°
2026-05-04 11:27 50.04489 5.85628 23020 ft 500 kts 141°
2026-05-04 11:28 50.01138 5.90646 23020 ft 500 kts 141°
2026-05-04 11:28 49.99491 5.93107 23020 ft 500 kts 141°
2026-05-04 11:28 49.96964 5.96881 23020 ft 500 kts 141°
2026-05-04 11:28 49.94470 6.00597 23020 ft 500 kts 141°
2026-05-04 11:29 49.91108 6.05597 23020 ft 500 kts 141°
2026-05-04 11:29 49.89453 6.08116 23018 ft 501 kts 139°
2026-05-04 11:29 49.87158 6.12076 23020 ft 504 kts 134°
2026-05-04 11:29 49.85066 6.16520 23019 ft 508 kts 126°
2026-05-04 11:31 49.73305 6.50664 23019 ft 511 kts 121°
2026-05-04 11:33 49.61567 6.84743 23034 ft 512 kts 122°
2026-05-04 11:33 49.59885 6.89593 23043 ft 512 kts 122°
2026-05-04 11:33 49.58214 6.94404 23048 ft 512 kts 122°
2026-05-04 11:34 49.56528 6.99248 23049 ft 512 kts 122°
2026-05-04 11:34 49.54843 7.04078 23047 ft 513 kts 121°
2026-05-04 11:34 49.52575 7.10569 23048 ft 513 kts 121°
2026-05-04 11:34 49.51458 7.13758 23049 ft 513 kts 121°
2026-05-04 11:35 49.49759 7.18601 23052 ft 513 kts 121°
2026-05-04 11:35 49.48060 7.23438 23055 ft 514 kts 121°
2026-05-04 11:35 49.46346 7.28307 23054 ft 514 kts 121°
2026-05-04 11:35 49.44633 7.33163 23054 ft 514 kts 121°
2026-05-04 11:36 49.42918 7.38017 23053 ft 514 kts 121°
2026-05-04 11:36 49.41226 7.42796 23049 ft 514 kts 121°
2026-05-04 11:36 49.39507 7.47645 23047 ft 514 kts 121°
2026-05-04 11:36 49.37227 7.54058 23046 ft 513 kts 121°
2026-05-04 11:37 49.36077 7.57287 23046 ft 513 kts 121°
2026-05-04 11:37 49.34365 7.62087 23048 ft 514 kts 121°
2026-05-04 11:37 49.32068 7.68514 23053 ft 513 kts 122°
2026-05-04 11:37 49.30346 7.73320 23048 ft 513 kts 122°
2026-05-04 11:38 49.28624 7.78118 23042 ft 513 kts 122°
2026-05-04 11:38 49.27471 7.81324 23037 ft 513 kts 122°
2026-05-04 11:38 49.25748 7.86110 23029 ft 513 kts 122°
2026-05-04 11:38 49.24002 7.90951 23022 ft 513 kts 122°
2026-05-04 11:39 49.22280 7.95714 23020 ft 513 kts 122°
2026-05-04 11:39 49.19973 8.02083 23020 ft 513 kts 122°
2026-05-04 11:40 49.10073 8.29237 22985 ft 515 kts 122°
2026-05-04 11:41 49.08313 8.34028 22220 ft 518 kts 122°
2026-05-04 11:41 49.06569 8.38772 21443 ft 501 kts 122°
2026-05-04 11:41 49.04887 8.43342 20620 ft 486 kts 122°
2026-05-04 11:41 49.02708 8.49243 19583 ft 471 kts 122°
2026-05-04 11:42 49.01141 8.53561 18816 ft 470 kts 120°
2026-05-04 11:42 49.00164 8.56562 18309 ft 469 kts 117°
2026-05-04 11:42 48.98622 8.62792 17267 ft 469 kts 107°
2026-05-04 11:42 48.98066 8.65929 16754 ft 468 kts 106°
2026-05-04 11:43 48.96989 8.72338 15696 ft 465 kts 106°
2026-05-04 11:43 48.96444 8.75499 15174 ft 463 kts 107°
2026-05-04 11:43 48.95629 8.80195 14386 ft 458 kts 107°
2026-05-04 11:43 48.94576 8.86306 13371 ft 438 kts 107°
2026-05-04 11:44 48.94060 8.89304 12873 ft 433 kts 107°
2026-05-04 11:44 48.93299 8.93712 12112 ft 428 kts 107°
2026-05-04 11:44 48.92289 8.99557 11145 ft 425 kts 105°
2026-05-04 11:44 48.91543 9.03866 10664 ft 416 kts 105°
2026-05-04 11:45 48.91054 9.06689 10523 ft 406 kts 105°
2026-05-04 11:45 48.90350 9.10745 10347 ft 390 kts 105°
2026-05-04 11:45 48.89442 9.15963 9999 ft 375 kts 104°
2026-05-04 11:45 48.88779 9.19756 9522 ft 372 kts 104°
2026-05-04 11:46 48.88332 9.22307 9190 ft 369 kts 104°
2026-05-04 11:46 48.87454 9.27315 8531 ft 365 kts 104°
2026-05-04 11:46 48.87017 9.29797 8204 ft 358 kts 104°
2026-05-04 11:46 48.86388 9.33364 7767 ft 344 kts 103°
2026-05-04 11:47 48.85577 9.37956 7195 ft 328 kts 103°
2026-05-04 11:47 48.84998 9.41229 6788 ft 316 kts 103°
2026-05-04 11:47 48.84619 9.43367 6522 ft 309 kts 103°
2026-05-04 11:47 48.84067 9.46479 6175 ft 297 kts 103°
2026-05-04 11:48 48.83446 9.49381 6023 ft 280 kts 115°
2026-05-04 11:48 48.81743 9.52104 5765 ft 260 kts 152°
2026-05-04 11:48 48.80081 9.53055 5494 ft 249 kts 166°
2026-05-04 11:48 48.79001 9.53494 5308 ft 244 kts 165°
2026-05-04 11:49 48.77368 9.54075 5052 ft 233 kts 178°
2026-05-04 11:49 48.75870 9.53603 4816 ft 214 kts 214°
2026-05-04 11:49 48.74633 9.51583 4570 ft 185 kts 249°
2026-05-04 11:49 48.74185 9.49845 4401 ft 176 kts 254°
2026-05-04 11:50 48.73789 9.48072 4240 ft 178 kts 255°
2026-05-04 11:50 48.73542 9.46887 4190 ft 173 kts 256°
2026-05-04 11:50 48.73065 9.44492 3842 ft 176 kts 256°
2026-05-04 11:50 48.72726 9.42717 3623 ft 175 kts 257°
2026-05-04 11:51 48.72505 9.41548 3526 ft 172 kts 257°
2026-05-04 11:51 48.72095 9.39339 3171 ft 156 kts 257°
2026-05-04 11:51 48.71802 9.37725 2955 ft 158 kts 257°
2026-05-04 11:51 48.71508 9.36121 2761 ft 157 kts 257°
2026-05-04 11:52 48.71215 9.34528 2546 ft 157 kts 256°
2026-05-04 11:52 48.71020 9.33464 2411 ft 157 kts 256°
2026-05-04 11:52 48.70728 9.31874 2202 ft 157 kts 256°
2026-05-04 11:52 48.70353 9.29725 1903 ft 161 kts 257°
2026-05-04 11:53 48.70090 9.28081 1660 ft 156 kts 257°
2026-05-04 11:53 48.69899 9.27044 1541 ft 153 kts 255°
2026-05-04 11:53 48.69507 9.24946 1294 ft 154 kts 255°
2026-05-04 11:53 48.69218 9.23421 1198 ft 137 kts 254°
2026-05-04 11:55 48.68858 9.20593 1269 ft 50 kts 255°
2026-05-04 11:55 48.68767 9.20119 1286 ft 42 kts 255°
2026-05-04 11:56 48.68713 9.19621 1302 ft 39 kts 253°
2026-05-04 11:56 48.68686 9.19182 1315 ft 31 kts 321°
2026-05-04 11:56 48.68790 9.19304 1316 ft 13 kts 31°
2026-05-04 11:56 48.68821 9.19359 1317 ft 10 kts 48°
2026-05-04 11:57 48.68890 9.19359 1318 ft 0 kts 345°